SCP
0 0 0 0 0 0 0 0 0 0 0 0 0 0 0 0 0 0 0 0 0 0 0 0 0 0 0 0 0 0 0 0 0 0 0 0 0 0 0 0 0 0 0
0 0 0 0 0 0 0 0 0 0 0 0 0 0 0 0 0 0 0 0 0 0 0 0 0 0 0 0 0 0 0 0 0 0 0 0 0 0 0 0 0 0 0
0 0 0 0 0 0 0 0 0 0 0 0 0 0 0 0 0 0 0 0 0 0 0 0 0 0 0 0 0 0 0 0 0 0 0 0 0 0 0 0 0 0 0
0 0 0 0 0 0 0 0 0 0 0 0 0 0 0 0 0 0 0 0 0 0 0 0 0 0 0 0 0 0 0 0 0 0 0 0 0 0 0 0 0 0 0
0 0 0 0 0 0 0 0 0 0 0 0 0 0 0 0 0 0 0 0 0 0 0 0 0 0 0 0 0 0 0 0 0 0 0 0 0 0 0 0 0 0 0
0 0 0 0 0 0 0 0 0 0 0 0 0 0 0 0 0 0 0 0 0 0 0 0 0 0 0 0 0 0 0 0 0 0 0 0 0 0 0 0 0 0 0
0 0 0 0 0 0 0 0 0 0 0 0 0 0 0 0 0 0 0 0 0 0 0 0 0 0 0 0 0 0 0 0 0 0 0 0 0 0 0 0 0 0 0
0 0 0 0 0 0 0 0 0 0 0 0 0 0 0 0 0 0 0 0 0 0 0 0 0 0 0 0 0 0 0 0 0 0 0 0 0 0 0 0 0 0 0
0 0 0 0 0 0 0 0 0 0 0 0 0 0 0 0 0 0 0 0 0 0 0 0 0 0 0 0 0 0 0 0 0 0 0 0 0 0 0 0 0 0 0
0 0 0 0 0 0 0 0 0 0 0 0 0 0 0 0 0 0 0 0 0 0 0 0 0 0 0 0 0 0 0 0 0 0 0 0 0 0 0 0 0 0 0
0 0 0 0 0 0 0 0 0 0 0 0 0 0 0 0 0 0 0 0 0 0 0 0 0 0 0 0 0 0 0 0 0 0 0 0 0 0 0 0 0 0 0
0 0 0 0 0 0 0 0 0 0 0 0 0 0 0 0 0 0 0 0 0 0 0 0 0 0 0 0 0 0 0 0 0 0 0 0 0 0 0 0 0 0 0
0 0 0 0 0 0 0 0 0 0 0 0 0 0 0 0 0 0 0 0 0 0 0 0 0 0 0 0 0 0 0 0 0 0 0 0 0 0 0 0 0 0 0
0 0 0 0 0 0 0 0 0 0 0 0 0 0 0 0 0 0 0 0 0 0 0 0 0 0 0 0 0 0 0 0 0 0 0 0 0 0 0 0 0 0 0
0 0 0 0 0 0 0 0 0 0 0 0 0 0 0 0 0 0 0 0 0 0 0 0 0 0 0 0 0 0 0 0 0 0 0 0 0 0 0 0 0 0 0
0 0 0 0 0 0 0 0 0 0 0 0 0 0 0 0 0 0 0 0 0 0 0 0 0 0 0 0 0 0 0 0 0 0 0 0 0 0 0 0 0 0 0
0 0 0 0 0 0 0 0 0 0 0 0 0 0 0 0 0 0 0 0 0 0 0 0 0 0 0 0 0 0 0 0 0 0 0 0 0 0 0 0 0 0 0
0 0 0 0 0 0 0 0 0 0 0 0 0 0 0 0 0 0 0 0 0 0 0 0 0 0 0 0 0 0 0 0 0 0 0 0 0 0 0 0 0 0 0
0 0 0 0 0 0 0 0 0 0 0 0 0 0 0 0 0 0 0 0 0 0 0 0 0 0 0 0 0 0 0 0 0 0 0 0 0 0 0 0 0 0 0
0 0 0 0 0 0 0 0 0 0 0 0 0 0 0 0 0 0 0 0 0 0 0 0 0 0 0 0 0 0 0 0 0 0 0 0 0 0 0 0 0 0 0
0 0 0 0 0 0 0 0 0 0 0 0 0 0 0 0 0 0 0 0 0 0 0 0 0 0 0 0 0 0 0 0 0 0 0 0 0 0 0 0 0 0 0
0 0 0 0 0 0 0 0 0 0 0 0 0 0 0 0 0 0 0 0 0 0 0 0 0 0 0 0 0 0 0 0 0 0 0 0 0 0 0 0 0 0 0
0 0 0 0 0 0 0 0 0 0 0 0 0 0 0 0 0 0 0 0 0 0 0 0 0 0 0 0 0 0 0 0 0 0 0 0 0 0 0 0 0 0 0
0 0 0 0 0 0 0 0 0 0 0 0 0 0 0 0 0 0 0 0 0 0 0 0 0 0 0 0 0 0 0 0 0 0 0 0 0 0 0 0 0 0 0
0 0 0 0 0 0 0 0 0 0 0 0 0 0 0 0 0 0 0 0 0 0 0 0 0 0 0 0 0 0 0 0 0 0 0 0 0 0 0 0 0 0 0
0 0 0 0 0 0 0 0 0 0 0 0 0 0 0 0 0 0 0 0 0 0 0 0 0 0 0 0 0 0 0 0 0 0 0 0 0 0 0 0 0 0 0
Wind_Speed
5 6 10 11 12 11 11 10 10 10 10 10 10 10 10 10 10 11 11 11 11 12 12 13 13 13 13 13 13 14 14 15 15 15 15 14 13 10 10 9 8 6 11
7 7 10 11 12 12 11 11 11 10 10 10 10 10 10 9 9 9 10 10 10 11 11 11 12 12 12 12 13 13 14 14 14 14 14 13 13 12 12 11 11 8 12
7 6 8 11 12 12 12 11 11 11 10 10 10 10 9 9 8 9 9 9 10 10 10 11 11 11 11 12 12 13 13 14 14 14 13 8 9 13 12 12 12 13 13
7 6 6 10 12 12 12 11 11 11 10 10 9 9 9 9 8 9 9 9 10 10 10 10 10 11 11 12 12 13 13 14 14 13 8 7 7 11 13 12 13 14 14
6 6 7 10 12 12 11 11 11 10 10 9 9 9 9 9 9 9 9 10 10 10 10 10 10 11 11 12 13 13 13 14 14 11 7 7 6 12 14 13 13 13 13
6 6 7 12 12 12 12 11 11 10 10 10 9 9 9 9 9 9 10 10 10 10 10 10 11 11 12 12 13 14 14 14 11 7 7 7 6 13 14 14 14 14 14
7 5 7 12 12 13 13 12 12 11 11 11 11 10 10 10 10 10 10 10 10 10 10 11 11 11 12 13 13 14 14 13 8 6 6 6 7 13 14 14 14 14 15
7 6 6 11 11 12 13 13 13 13 12 12 12 12 11 11 11 11 11 10 10 10 10 11 11 11 12 12 13 14 14 13 9 7 6 6 11 13 13 14 14 14 14
6 6 5 5 8 11 12 12 13 13 13 13 13 12 12 11 11 11 10 11 11 11 11 11 11 11 12 12 13 13 14 14 7 5 7 5 11 12 12 13 13 13 13
5 5 6 5 5 5 7 11 12 11 12 13 12 11 10 11 11 10 9 10 11 11 11 10 10 11 11 12 12 13 13 10 6 6 4 6 12 11 12 12 12 12 12
7 6 6 6 6 5 5 7 9 11 12 12 10 12 9 5 5 5 7 10 11 11 10 10 11 11 10 11 12 12 9 4 5 4 4 9 11 11 11 11 11 12 12
14 10 7 8 7 6 5 4 4 4 5 5 5 7 5 4 3 4 8 9 10 10 10 10 10 10 8 4 7 8 3 5 4 3 5 11 10 10 10 11 11 12 12
12 10 10 9 8 8 5 4 3 3 3 5 6 6 5 4 3 3 3 4 5 7 5 6 6 4 3 3 3 3 4 3 3 3 4 10 10 10 10 11 12 12 13
10 12 11 9 9 8 7 5 5 4 4 4 5 7 6 4 3 3 3 3 3 2 3 3 3 3 4 4 4 4 4 3 3 2 4 10 10 11 11 12 12 13 13
12 13 13 12 12 10 8 7 7 6 6 6 5 6 7 6 5 4 3 3 3 3 3 3 3 3 3 3 3 4 4 4 4 3 3 9 10 11 12 12 13 13 14
17 16 14 16 15 12 11 10 8 8 7 6 6 7 8 6 6 5 5 4 3 3 3 3 4 3 2 2 3 3 3 3 3 4 3 5 10 11 11 12 13 14 15
17 15 16 17 15 15 14 13 9 8 8 8 8 8 9 8 8 6 5 5 4 4 4 3 3 2 2 2 3 3 3 3 3 4 4 3 4 9 12 13 14 14 15
15 14 16 15 17 18 16 14 10 9 10 9 8 8 10 10 9 7 6 5 5 4 3 3 3 2 2 2 2 3 3 3 4 4 4 4 4 4 8 14 14 15 15
18 17 17 18 19 20 17 12 10 9 10 9 8 9 10 11 11 8 7 5 6 4 3 3 2 2 2 2 2 3 3 3 3 4 5 5 4 4 4 9 13 14 15
16 16 17 18 19 16 11 8 6 7 8 8 9 10 12 11 12 9 7 7 7 5 4 3 3 2 2 2 2 3 3 2 3 4 4 3 3 4 4 5 5 8 13
13 16 18 20 19 15 14 14 13 15 13 12 11 13 14 13 13 11 8 8 8 7 6 6 4 3 2 1 3 2 3 3 3 3 2 2 3 3 4 4 3 3 5
14 17 18 20 18 19 18 15 7 7 7 8 7 9 12 13 14 12 12 11 10 7 7 7 5 4 2 1 3 3 1 1 0 1 1 2 2 2 3 3 3 3 3
13 16 16 19 20 20 16 8 5 5 4 6 9 11 12 14 14 13 14 12 11 10 10 9 7 7 5 2 1 4 4 4 2 1 1 1 1 1 2 2 3 3 4
11 12 16 17 18 17 16 16 18 16 17 17 13 13 14 16 16 15 14 14 13 10 9 9 7 5 6 4 2 1 1 3 4 1 2 1 2 1 2 2 3 4 4
9 10 14 15 17 17 18 21 21 18 14 7 7 12 13 13 14 15 15 14 13 11 11 10 9 7 5 6 5 4 3 2 2 3 3 2 2 2 3 3 3 4 4
6 6 8 12 15 16 19 21 22 21 14 12 12 14 13 10 11 15 15 14 14 12 12 11 11 10 6 5 5 5 6 5 5 4 4 3 2 3 3 4 4 4 3
Wind_Direction
195 187 188 173 167 164 160 156 154 148 144 137 127 117 108 99 91 83 78 74 72 69 66 62 57 53 48 45 42 38 33 27 24 23 24 23 25 41 57 54 45 37 43
161 175 183 173 167 163 159 153 149 147 144 137 127 119 112 105 98 91 84 80 76 71 67 62 57 52 47 43 39 35 32 29 27 26 25 19 18 38 55 54 46 41 40
146 163 167 162 161 158 154 151 150 147 140 133 127 122 118 113 108 102 94 88 82 75 69 63 58 54 50 46 42 39 36 34 33 32 28 18 11 32 50 53 47 40 35
146 146 146 152 154 154 151 150 149 145 141 138 136 134 130 126 121 113 104 96 89 84 78 71 66 60 55 51 47 45 43 42 41 40 30 18 8 27 43 49 46 39 32
143 140 147 152 158 158 157 157 155 154 154 154 152 148 142 137 129 120 111 104 97 92 86 80 74 67 61 56 52 50 49 49 47 41 29 17 8 31 42 46 45 40 32
149 147 156 158 165 167 169 170 169 168 167 165 162 157 150 142 134 125 118 111 104 98 92 86 79 72 66 61 56 53 52 52 44 35 29 17 10 36 42 43 42 39 33
155 157 166 166 172 175 177 179 178 176 173 170 166 160 154 147 140 132 125 117 110 103 96 89 82 75 69 64 59 55 52 50 45 35 27 12 15 39 42 40 38 36 32
156 162 170 173 175 179 181 182 181 180 176 172 168 163 158 153 146 138 131 123 114 106 98 90 82 76 70 65 61 57 53 51 41 33 21 7 21 38 40 38 35 34 32
162 164 176 177 175 179 182 183 182 180 177 173 170 165 160 155 149 142 135 128 119 110 101 92 84 77 72 67 62 58 54 51 42 30 22 5 25 35 37 36 34 33 31
185 184 181 176 170 173 179 182 181 179 177 174 169 156 152 152 147 141 137 133 125 116 106 98 88 79 73 68 63 59 54 47 34 26 6 12 30 33 36 36 35 34 33
210 206 190 180 173 168 168 181 178 179 179 174 159 151 135 118 122 133 143 135 128 120 112 102 93 84 72 65 63 59 53 38 33 24 358 26 32 36 39 39 38 38 38
208 204 196 186 177 169 170 164 161 166 168 153 143 138 125 123 135 135 138 126 120 116 112 105 94 82 74 55 53 56 45 40 35 20 14 32 36 42 45 45 45 44 43
206 201 199 192 180 174 170 163 159 151 147 146 146 140 137 133 134 115 104 100 88 88 82 91 85 74 73 68 60 50 46 44 34 18 11 37 42 48 52 52 51 49 46
200 204 198 190 186 184 175 172 167 164 164 166 163 156 150 150 150 145 132 127 115 111 116 107 104 96 84 75 70 61 50 44 37 23 19 42 47 50 55 56 53 51 47
211 208 199 191 193 188 182 182 181 182 180 174 169 170 166 164 165 159 151 146 143 139 140 137 131 121 106 88 76 69 56 45 41 41 26 44 52 51 54 55 53 51 47
216 212 200 198 198 191 192 193 190 188 181 175 179 179 174 169 165 162 159 161 163 161 157 151 147 136 120 106 81 70 63 51 45 49 46 44 51 52 55 57 54 49 43
220 211 201 201 197 196 198 196 192 189 184 187 188 181 178 173 169 165 164 169 170 162 155 144 139 129 115 96 75 63 58 53 55 55 55 53 44 47 56 60 52 43 38
219 209 205 200 198 200 201 197 195 191 190 192 186 183 182 177 170 165 169 174 165 158 158 155 151 125 96 81 71 53 50 57 62 67 66 61 54 47 50 58 51 41 33
218 211 203 200 200 201 200 196 193 188 192 190 184 185 184 179 174 171 173 167 160 159 168 166 142 142 120 90 76 65 53 61 68 76 73 64 63 64 53 53 47 35 25
218 211 206 201 203 196 191 186 182 188 194 190 189 189 183 181 176 171 168 166 162 163 173 172 144 122 113 113 89 70 54 59 81 75 73 67 70 74 69 58 41 24 18
215 209 207 203 200 188 189 191 193 201 197 197 196 191 185 180 176 174 171 168 172 179 179 165 145 138 124 135 110 76 45 54 85 71 64 76 67 68 72 57 38 29 6
216 215 212 208 199 195 198 196 191 181 193 195 187 187 186 181 177 179 174 177 178 173 172 179 161 140 131 145 138 121 85 5 22 45 40 81 65 57 50 28 15 9 358
224 219 214 211 205 201 195 173 146 131 113 170 191 191 190 185 183 183 181 177 179 180 185 186 176 153 148 153 166 147 154 203 238 310 344 0 357 22 12 343 331 338 336
237 222 216 212 206 199 186 185 183 191 197 197 191 189 185 187 186 184 180 180 181 183 185 186 179 166 143 151 148 67 94 146 157 224 301 328 335 304 302 300 303 309 314
249 226 216 209 205 195 191 195 196 204 206 176 165 177 183 187 188 185 182 182 184 186 186 181 179 180 165 154 155 150 124 59 80 155 226 291 324 291 270 260 266 283 291
282 252 226 210 208 197 196 198 200 204 192 173 176 182 185 185 188 189 186 187 187 187 186 186 183 184 180 165 164 161 159 158 174 169 191 216 260 286 269 257 253 255 255